Regional Weather Roundup
Issued by NWS Little Rock, AR

Home | Current Version | Previous Version | Text Only | Print | Product List | Glossary Off
Versions: 1 2 3 4 5 6 7 8 9 10 11 12 13 14 15 16 17 18 19 20 21 22 23 24 25 26 27 28 29 30 31 32 33 34 35 36 37 38 39 40 41 42 43 44 45 46 47 48 49 50

370
ASUS44 KLZK 250100
RWRLZK
ARKANSAS STATE WEATHER ROUNDUP
NATIONAL WEATHER SERVICE LITTLE ROCK AR
ISSUED BY NATIONAL WEATHER SERVICE MEMPHIS TN
800 PM CDT TUE APR 24 2018

NOTE: "FAIR" INDICATES FEW OR NO CLOUDS BELOW 12,000 FEET WITH NO
SIGNIFICANT WEATHER AND/OR OBSTRUCTIONS TO VISIBILITY.

ARZ001-003-010-029-250200-
NORTHWEST ARKANSAS

CITY           SKY/WX    TMP DP  RH WIND       PRES   REMARKS
FORT SMITH     CLEAR     74  39  28 N7        30.01R
HARRISON       CLEAR     68  39  34 NW6       30.05R
BENTONVILLE    CLEAR     68  40  35 NE7       30.08R
SILOAM SPGS    CLEAR     65  42  43 NW6       30.07R
HIGHFILL       CLEAR     64  39  39 N7        30.06R
SPRINGDALE     CLEAR     68  37  32 N9        30.07R
$$

ARZ004-005-016-250200-
NORTH CENTRAL ARKANSAS

CITY           SKY/WX    TMP DP  RH WIND       PRES   REMARKS
BATESVILLE     CLEAR     69  50  50 N3        30.02R
FLIPPIN        CLEAR     71  44  37 N3        30.03R
MTN HOME       CLEAR     68  47  46 E5        30.01R
$$

ARZ040-041-250200-
WEST CENTRAL ARKANSAS

CITY           SKY/WX    TMP DP  RH WIND       PRES   REMARKS
MOUNT IDA      CLEAR     70  46  42 CALM      29.99R
$$

ARZ017-025-026-028-250200-
NORTHEAST ARKANSAS

CITY           SKY/WX    TMP DP  RH WIND       PRES   REMARKS
JONESBORO      CLOUDY    65  55  70 CALM      30.00R
NEWPORT        FAIR      64  58  80 NE7       30.01R
WALNUT RIDGE   MOCLDY    65  58  78 E3        30.01R
BLYTHEVILLE    CLOUDY    61  56  83 N5        30.01R
$$

ARZ022-033-042-044-250200-
CENTRAL ARKANSAS

CITY           SKY/WX    TMP DP  RH WIND       PRES   REMARKS
LITTLE ROCK    NOT AVBL
SEARCY         FAIR      66  58  75 E3        30.01R
HOT SPRINGS    CLEAR     74  46  36 CALM      29.99R
RUSSELLVILLE   CLEAR     68  47  46 NE3       29.98R
$$

ARZ036-250200-
EAST ARKANSAS

CITY           SKY/WX    TMP DP  RH WIND       PRES   REMARKS
WEST MEMPHIS   MOCLDY    64  58  80 N6        29.99R
$$

ARZ050-070-073-250200-
SOUTHWEST ARKANSAS

CITY           SKY/WX    TMP DP  RH WIND       PRES   REMARKS
TEXARKANA      CLEAR     71  52  50 SW5       29.99S
EL DORADO      FAIR      68  58  70 CALM      29.99S
DEQUEEN        CLEAR     75  42  30 CALM      29.98R
$$

ARZ056-057-069-250200-
SOUTHEAST ARKANSAS

CITY           SKY/WX    TMP DP  RH WIND       PRES   REMARKS
PINE BLUFF     FAIR      67  59  75 E6        30.00R
STUTTGART      FAIR      68  57  68 E6        30.01R
MONTICELLO     FAIR      66  57  72 E3        30.00R
$$





USA.gov is the U.S. government's official web portal to all federal, state and local government web resources and services.